Wind_Speed
47 48 50 51 52 52 52 53 53 53 52 53 53 53 52 53 53 54 54 53 53 53 53 53 53 53 53 53 52 51 50 49 48 46 44 42 40 40 39 39 38 38 38 38 38 39 39 39 39 38 38 39 39 39 39 40 41 41 42 42 42 43 45 47 50 53 52 51 53 54 54 54 53 53 53 52 51 50 49 49 50 51 53 55 56
48 49 50 51 52 52 52 52 52 52 52 52 52 52 52 53 53 53 53 53 52 53 52 52 53 53 53 52 51 50 49 48 48 46 43 41 40 40 39 39 38 38 38 38 38 38 38 38 38 38 38 38 38 39 39 39 39 40 41 42 42 42 44 45 48 50 50 49 50 53 55 55 55 54 53 52 52 51 51 51 50 51 52 53 55
48 50 51 51 51 51 52 51 51 51 51 51 51 52 52 53 53 53 53 53 52 52 52 52 52 52 51 50 49 49 48 47 47 45 43 41 40 40 39 38 38 38 38 38 38 38 38 38 38 37 38 38 38 38 38 38 38 39 40 41 42 42 43 45 46 47 48 47 47 50 52 53 55 56 55 53 52 51 52 52 52 52 52 52 54
49 50 51 51 51 51 51 50 50 51 51 51 51 52 52 52 53 53 53 53 53 52 52 52 52 51 50 49 48 47 47 46 46 44 43 41 41 40 39 39 38 38 38 37 37 37 38 38 38 37 38 38 37 37 37 37 38 39 39 40 41 42 43 44 45 46 47 46 46 47 49 50 51 53 55 55 53 52 52 52 53 53 53 53 54
49 50 50 50 51 50 50 50 50 50 50 51 51 52 52 52 52 53 53 53 52 52 52 52 51 50 49 48 47 46 46 45 45 43 42 41 41 40 39 39 38 38 38 38 37 37 38 38 37 38 38 38 37 37 37 37 38 39 39 40 40 41 42 43 44 45 46 46 46 47 48 49 49 50 52 53 53 53 52 52 53 53 54 54 54
49 50 49 50 50 49 49 48 49 50 50 51 51 51 52 52 52 52 52 52 52 52 51 51 50 49 48 47 46 45 45 44 43 42 41 41 41 40 40 39 39 38 38 38 38 38 38 38 38 38 38 38 37 37 37 37 38 39 39 40 41 41 42 43 43 44 45 45 46 47 48 49 49 49 49 51 51 52 52 51 52 53 54 55 55
48 49 49 49 48 47 47 48 49 49 50 50 50 51 51 51 51 51 51 51 51 51 50 49 48 48 47 46 46 45 43 42 42 41 40 41 41 40 40 39 39 39 39 38 38 38 38 38 38 38 38 38 38 37 38 38 38 39 40 40 41 41 42 42 42 43 44 45 45 46 47 49 49 49 49 49 50 50 51 51 52 51 52 55 56
48 48 48 48 47 46 47 48 49 49 49 49 50 50 50 50 50 50 50 51 50 49 49 48 47 46 46 45 44 43 42 41 40 40 40 40 40 40 40 40 40 39 39 39 39 39 39 39 38 38 38 38 38 38 38 39 39 40 40 40 41 41 42 42 42 43 44 45 45 46 47 48 49 49 49 50 50 50 49 50 52 52 51 53 54
48 47 47 46 46 46 47 48 48 48 48 49 49 49 49 49 49 50 50 49 49 48 48 47 46 45 44 44 43 42 41 40 39 39 39 40 40 40 40 40 40 40 40 39 39 39 39 39 38 38 37 38 38 38 39 40 41 41 41 40 41 42 42 43 43 44 44 45 46 47 48 48 48 49 49 50 51 51 50 50 52 51 50 51 52
47 46 46 45 45 46 46 47 47 47 48 48 47 47 48 48 49 50 49 48 48 47 46 45 44 44 43 43 42 41 40 39 38 38 39 40 40 40 40 41 41 40 40 40 40 40 39 39 39 38 38 38 38 39 39 40 41 42 41 41 40 41 42 43 43 43 44 46 46 47 48 49 49 48 49 50 50 51 51 49 49 49 49 51 51
46 45 45 45 45 45 46 46 47 47 47 46 46 47 48 49 49 49 48 47 47 46 45 44 43 43 43 42 41 40 39 38 37 38 38 39 40 41 41 41 41 41 40 40 40 40 40 40 39 38 38 38 38 39 39 40 41 41 41 41 41 41 42 43 43 44 45 46 47 47 48 49 49 48 48 48 48 48 48 47 47 48 47 48 50
45 45 44 44 44 45 45 46 46 46 45 45 46 47 48 49 48 48 47 46 46 45 44 43 43 42 42 41 40 39 38 37 37 37 38 38 40 41 43 43 42 42 41 41 40 40 40 40 39 38 38 38 39 39 40 40 40 40 40 40 41 41 41 42 43 45 47 48 48 48 48 48 48 46 45 44 44 43 43 43 44 45 45 45 48
45 44 44 43 44 44 45 46 45 44 44 45 47 48 48 48 48 47 46 45 44 44 43 42 42 42 42 41 40 39 37 36 36 37 38 38 39 41 43 44 44 43 42 42 41 41 41 41 41 40 40 40 40 40 41 40 40 39 39 40 41 41 40 41 42 44 46 48 49 49 49 49 48 45 42 40 41 41 40 39 39 40 41 42 44
44 43 43 42 43 44 45 45 44 44 45 46 47 47 47 47 47 46 45 44 44 43 42 42 41 41 41 40 39 39 37 36 36 37 38 38 39 41 43 44 44 44 43 42 42 42 42 42 42 42 41 41 41 41 42 41 40 40 40 40 40 40 41 41 42 42 44 46 48 49 49 48 47 45 41 38 38 39 37 36 36 37 39 40 40
43 42 42 42 43 44 44 44 44 44 45 46 47 47 47 46 45 44 44 43 43 43 42 42 41 40 40 40 39 38 36 36 37 37 38 39 39 41 43 44 45 44 44 43 42 43 43 43 43 43 43 43 42 42 42 41 41 41 41 41 41 41 41 42 42 42 42 43 45 46 46 45 44 42 38 34 32 32 31 32 32 34 36 38 39
42 41 42 42 43 43 43 44 45 45 45 46 47 46 46 45 44 43 43 43 42 42 42 41 41 40 39 39 39 38 36 36 37 37 38 39 40 42 43 44 45 45 44 44 44 44 44 44 44 44 44 44 43 43 42 42 41 42 42 42 42 42 42 42 41 41 42 42 43 43 42 41 39 37 34 30 28 29 30 31 32 33 34 37 39
41 42 42 42 42 42 43 44 45 45 45 46 46 45 45 44 43 43 43 42 42 41 41 41 40 40 39 38 38 38 36 35 36 37 38 39 40 42 43 44 45 45 45 44 44 44 44 44 44 45 46 45 45 44 42 41 42 43 44 43 43 44 44 42 40 40 40 40 39 38 37 36 35 34 33 30 29 28 31 33 33 33 35 38 40
41 42 42 41 42 42 43 44 44 45 45 46 45 44 44 43 42 42 42 42 41 41 41 41 40 39 39 38 38 38 36 35 35 37 37 38 40 42 43 44 45 45 45 45 45 45 44 44 44 45 47 46 45 43 41 40 42 43 43 44 45 46 45 43 41 41 39 38 37 37 38 38 38 39 38 36 34 32 34 36 34 34 36 38 40
42 42 41 41 42 42 43 43 44 45 45 45 44 44 43 42 41 41 42 42 41 41 41 41 39 38 38 38 38 38 37 35 35 36 37 37 39 41 42 44 44 44 44 45 45 45 44 44 44 45 46 46 45 42 40 40 42 43 43 44 47 47 45 43 43 43 42 41 40 39 40 40 41 43 43 41 39 38 39 40 40 39 40 40 40
42 41 41 41 41 42 42 43 44 44 44 44 43 42 42 41 41 41 41 42 42 41 41 41 39 38 37 38 37 37 37 36 35 36 37 37 38 39 41 42 43 43 43 44 44 44 44 44 44 44 44 44 43 40 38 39 41 41 42 44 47 46 44 43 44 44 44 44 43 42 42 40 39 40 42 43 42 41 42 43 44 45 46 46 45
41 40 41 41 41 41 42 42 43 43 43 43 42 41 41 40 40 41 41 41 41 41 41 40 40 38 37 38 37 36 37 37 35 35 36 36 36 37 39 40 40 41 42 42 43 43 44 44 44 43 42 42 40 38 36 37 38 38 40 43 44 42 41 43 44 45 45 45 44 44 45 43 39 38 39 40 41 41 43 45 46 48 49 50 50
40 40 40 40 40 40 41 42 43 42 42 42 42 41 40 40 40 40 41 41 41 41 41 40 40 39 37 37 37 36 36 37 36 36 36 35 35 36 37 38 38 39 41 42 42 43 43 42 42 41 40 39 38 37 37 37 37 37 39 39 36 36 40 44 45 45 45 45 45 46 47 45 42 39 39 39 39 39 40 43 45 48 50 51 52
40 40 40 40 40 40 41 42 42 41 41 41 41 40 39 39 40 40 41 42 42 41 41 40 40 40 38 37 36 36 36 37 37 36 35 35 34 34 35 35 35 37 40 41 41 42 41 40 40 39 39 38 38 38 38 37 37 39 39 35 34 38 44 45 44 44 45 45 45 47 47 46 44 41 41 41 40 39 40 40 42 44 47 49 51
40 40 39 39 39 40 41 41 41 41 40 40 40 39 39 39 40 40 41 42 42 41 41 40 41 40 39 37 36 36 36 37 37 36 36 35 34 33 33 33 33 35 38 40 40 40 40 39 38 38 38 38 38 39 39 38 39 41 40 39 39 43 44 43 42 44 44 44 45 46 47 46 44 43 43 43 42 42 41 41 42 43 44 46 48
40 39 39 39 39 40 41 40 40 40 40 40 39 39 39 39 39 40 41 41 42 41 41 40 41 40 39 38 36 36 37 37 36 36 36 35 34 33 33 33 33 34 36 38 38 39 39 39 38 38 38 39 40 40 40 40 40 41 41 41 42 42 42 41 42 43 44 44 45 45 46 46 45 44 44 44 44 43 43 43 43 43 43 44 46
39 39 38 38 39 40 40 40 40 39 39 39 39 38 39 39 40 40 41 41 42 42 41 41 41 40 40 39 38 37 37 37 36 36 36 36 35 35 35 35 35 36 36 36 37 37 38 38 38 38 39 40 41 42 42 41 40 41 41 41 41 41 41 41 42 43 44 44 44 45 45 45 45 45 45 44 44 43 42 42 42 41 42 43 44
39 38 38 38 39 40 40 39 39 39 39 39 38 38 39 39 40 40 40 41 42 41 41 41 40 40 40 39 39 38 37 37 37 36 36 37 36 36 37 38 38 38 38 37 37 37 37 37 38 39 39 40 40 41 41 41 40 40 40 40 41 41 41 42 43 44 44 44 44 44 44 44 44 43 43 43 43 41 41 41 41 40 39 40 42
39 38 38 38 39 39 40 39 39 38 38 38 38 38 38 39 40 40 40 41 42 41 41 40 40 41 41 41 40 40 38 37 37 37 37 37 37 37 38 39 39 39 39 38 37 37 38 38 38 38 37 37 37 38 38 39 39 40 40 40 41 41 42 42 43 44 43 43 43 43 43 42 42 42 41 41 41 39 39 40 39 38 36 37 39
39 37 37 38 38 39 39 39 38 38 38 38 38 38 38 39 40 40 40 40 41 41 40 40 39 40 41 41 41 41 40 38 37 37 37 37 37 38 39 39 39 39 38 38 39 40 39 39 38 36 35 35 35 35 35 36 37 38 39 40 41 41 42 43 43 43 43 43 43 42 42 41 40 40 40 40 39 38 38 38 37 36 34 35 37
38 37 38 38 38 38 38 38 38 38 38 38 38 38 38 39 40 40 40 39 39 40 40 40 39 41 41 41 41 41 40 38 37 37 36 37 38 40 40 40 39 39 39 40 42 41 39 37 36 35 34 35 35 34 34 35 36 36 37 38 39 41 41 42 42 43 44 44 44 43 42 40 39 39 39 39 38 37 37 37 36 35 34 34 35
38 37 37 37 38 38 38 38 38 38 38 38 39 39 38 38 38 39 40 39 38 38 39 40 40 41 42 43 43 42 42 40 39 38 37 38 39 41 41 40 41 41 42 44 45 43 41 39 38 36 35 35 35 34 34 35 35 36 36 37 38 39 40 40 41 42 43 43 43 43 42 41 40 39 39 39 39 37 37 36 35 34 33 33 34
38 37 37 37 37 37 38 38 38 38 38 38 39 40 40 39 37 36 37 38 38 38 38 38 39 40 41 42 43 44 44 42 41 40 39 40 40 41 41 41 41 42 44 46 46 45 44 43 42 41 39 38 37 36 36 36 36 36 36 36 36 36 37 38 39 40 40 40 40 40 40 40 39 39 39 39 38 37 36 34 33 33 33 33 33
38 38 37 37 37 37 38 38 38 38 38 39 39 40 40 40 39 36 35 35 36 37 37 38 38 39 39 40 42 43 43 43 42 42 41 41 41 41 42 43 43 43 45 46 45 45 45 45 44 43 42 41 40 39 38 38 37 37 37 36 36 34 34 36 37 37 38 38 38 38 38 38 38 38 37 37 36 36 34 32 31 31 31 31 31
38 37 37 37 37 37 38 38 38 38 39 39 40 40 40 40 40 39 37 35 35 35 35 36 37 38 38 38 40 41 42 42 42 41 41 41 41 42 43 45 44 45 46 46 46 45 45 45 45 44 44 43 42 41 40 39 38 38 38 37 36 35 34 34 35 36 36 36 36 36 36 36 37 36 35 35 35 34 32 30 29 29 29 30 29
37 37 37 37 37 37 37 37 38 38 39 39 40 40 40 39 39 39 39 39 37 36 34 35 36 37 37 37 37 39 40 41 41 40 40 40 41 42 45 46 46 46 46 46 46 46 46 46 45 45 45 44 44 43 42 41 39 38 38 37 36 35 34 34 34 34 35 35 35 35 35 35 35 34 34 33 33 32 30 29 29 28 28 27 27
37 37 37 37 37 37 37 37 38 38 39 39 39 39 39 39 39 39 40 40 39 38 36 34 34 35 36 37 37 38 38 39 39 39 39 39 41 43 46 47 46 46 46 46 45 46 46 46 46 46 45 45 45 44 44 43 41 39 38 37 36 35 34 33 33 34 34 34 33 33 33 33 33 33 33 32 31 30 29 28 28 27 26 26 25
37 37 37 36 37 37 37 37 38 38 39 39 39 39 39 39 39 40 40 39 39 39 37 35 34 33 33 35 37 39 39 38 38 39 39 40 42 44 45 46 46 46 46 45 45 46 46 46 46 46 46 45 44 44 43 42 41 39 38 36 35 34 33 32 32 33 33 33 32 32 32 32 32 32 31 30 29 29 29 28 27 26 25 25 24
36 36 36 36 36 36 36 37 37 38 38 38 39 39 39 39 39 40 39 39 39 38 37 36 35 34 34 34 36 38 40 40 39 40 40 41 42 43 44 44 45 45 45 45 45 46 46 46 46 46 46 45 44 44 43 42 40 39 37 36 35 34 33 32 31 32 32 32 31 31 31 31 30 30 30 29 29 28 28 27 25 24 24 24 23
35 35 35 36 36 36 36 36 36 37 38 38 39 39 39 39 39 39 39 38 38 37 37 36 36 36 36 37 37 39 40 41 40 40 41 41 41 42 43 44 44 44 44 44 45 45 45 46 46 46 45 45 44 43 43 42 39 37 36 35 34 33 31 31 30 31 31 31 30 30 30 30 29 29 29 29 28 28 27 26 24 23 23 23 22
34 35 35 36 36 36 36 36 36 37 38 38 38 39 39 39 38 38 38 38 37 37 37 37 37 37 38 39 40 42 42 42 41 41 41 41 41 42 43 43 43 43 43 43 43 43 43 44 44 44 44 43 42 41 41 41 39 37 35 34 33 32 30 30 30 30 30 30 30 29 29 29 28 28 28 28 28 27 26 24 23 23 23 22 21
34 34 34 35 35 35 35 35 36 37 38 38 38 38 38 38 38 38 38 38 38 38 38 38 38 39 40 41 42 44 44 44 44 44 44 44 44 44 44 44 43 44 43 43 42 42 42 42 42 42 42 41 40 39 39 38 37 36 34 33 32 31 30 29 29 30 30 30 29 29 28 28 28 28 28 28 27 26 25 23 22 22 22 21 21
34 34 34 34 34 34 35 36 37 37 38 38 37 37 37 37 37 37 38 38 38 39 39 40 40 41 42 42 43 45 45 45 45 45 45 45 45 45 45 45 45 45 44 44 44 43 42 42 41 40 40 39 38 37 36 36 35 34 33 32 31 30 29 29 29 29 29 29 29 28 27 27 27 27 27 27 26 25 24 22 21 21 22 21 21
34 34 33 33 34 35 35 36 37 37 37 37 36 36 37 37 37 37 38 39 40 41 42 42 43 43 43 44 44 45 45 45 46 46 46 46 46 46 45 45 45 45 45 45 44 44 43 42 41 40 39 37 36 35 34 33 33 33 32 31 30 30 29 28 28 29 29 29 28 27 27 26 27 27 26 25 24 23 22 21 21 21 21 21 20
34 33 33 33 34 35 36 36 37 36 36 36 35 36 36 37 38 39 40 41 41 42 43 44 45 45 45 45 45 45 45 45 46 46 46 46 46 45 45 45 45 45 45 44 43 43 42 41 40 39 37 36 35 34 33 32 31 31 31 31 30 29 28 28 28 29 29 29 27 26 26 26 26 26 25 24 23 22 21 21 21 21 21 20 19
33 33 33 34 34 35 35 36 36 35 35 35 35 35 36 38 39 40 41 42 42 43 44 45 46 47 46 46 46 46 46 46 46 46 46 46 46 46 45 45 45 44 44 43 42 41 40 39 38 37 36 34 34 33 32 31 30 30 30 30 29 28 27 27 28 29 29 28 26 25 25 25 25 25 23 22 21 21 20 20 21 21 21 20 19
33 33 34 34 35 35 35 34 34 34 35 35 36 36 37 38 39 40 41 42 43 45 45 46 47 47 47 46 46 46 46 46 46 46 46 46 46 45 45 45 44 44 43 42 41 39 38 37 36 35 34 32 32 32 31 30 29 29 29 29 28 27 27 27 28 28 28 26 25 24 24 24 24 23 22 21 20 20 19 20 21 21 21 20 18
34 34 35 35 35 35 34 34 34 34 35 36 37 37 38 38 39 41 42 43 44 45 46 46 46 46 46 46 46 46 46 46 46 46 46 46 46 45 45 44 44 43 41 40 38 37 35 34 34 32 31 30 30 30 29 28 28 28 27 27 27 26 26 27 27 27 27 25 24 24 24 23 22 22 21 20 19 19 19 20 21 21 20 19 18
35 35 35 35 35 34 34 34 34 35 36 36 37 38 38 40 41 42 43 44 45 46 46 46 46 46 45 45 45 46 46 46 46 46 46 46 45 44 44 43 42 41 39 37 35 34 32 32 31 30 29 28 28 27 27 26 25 25 25 25 25 25 25 26 26 26 26 24 23 23 23 22 21 20 19 19 19 19 19 20 20 20 20 19 17
35 35 35 35 34 34 35 35 35 36 37 37 38 38 39 41 42 43 44 45 45 46 46 46 46 45 45 45 45 45 46 46 46 46 45 45 44 44 43 41 40 38 36 34 32 31 30 29 28 28 27 27 26 24 24 23 22 22 21 22 22 23 24 25 25 25 25 23 22 22 21 21 20 19 19 18 18 18 18 19 19 19 19 17 15
35 35 35 35 35 35 35 36 36 37 37 38 39 40 41 42 42 43 44 45 45 46 46 45 45 45 45 45 45 45 45 46 45 45 45 44 43 42 41 39 37 35 33 32 30 29 28 27 26 26 25 24 23 22 20 19 19 18 18 19 20 21 23 24 24 24 23 22 21 21 20 19 19 18 18 18 18 17 18 19 19 18 18 16 14
35 35 35 35 35 36 36 36 37 37 38 39 40 41 42 43 44 44 45 46 46 45 45 45 45 45 45 45 45 45 45 45 45 44 44 43 42 41 39 37 35 33 31 30 28 27 26 25 24 23 22 21 20 19 17 16 16 15 16 17 18 20 21 22 23 23 22 21 21 20 19 18 18 18 18 18 17 17 18 18 18 17 16 14 13
Wind_Direction
301 301 301 301 302 302 301 300 299 299 299 299 299 300 300 300 300 301 302 302 302 301 300 300 299 299 299 299 299 299 298 297 295 293 289 284 280 280 280 280 281 282 283 283 284 284 284 285 284 285 284 284 283 282 282 282 282 282 283 283 283 283 283 283 282 279 277 277 276 274 273 270 268 266 264 261 259 257 255 255 255 255 255 253 252
301 301 300 301 301 300 299 299 298 298 298 299 299 299 300 300 301 301 302 302 301 300 300 299 299 299 299 300 299 298 297 295 294 291 287 283 279 278 278 279 280 281 282 282 283 283 284 285 285 286 286 285 285 285 284 284 283 283 283 283 283 284 284 283 283 282 280 278 277 276 275 273 271 269 267 264 262 260 258 256 255 255 255 255 254
301 300 300 301 300 299 299 299 299 298 299 299 299 300 301 301 302 301 301 301 300 300 300 299 299 299 300 299 299 297 295 294 292 289 286 282 279 278 278 278 279 280 281 282 282 283 284 285 286 287 287 286 286 286 286 285 285 284 283 283 282 282 283 283 284 284 283 281 280 278 277 275 273 272 270 267 264 263 260 258 256 255 255 255 255
301 300 301 300 300 299 299 299 299 299 299 299 300 301 301 302 301 301 301 300 300 300 300 300 300 300 300 299 298 296 294 292 290 287 284 281 279 278 277 278 279 279 280 281 281 282 284 285 286 286 287 287 287 287 287 286 285 284 283 282 282 281 281 282 283 284 285 284 282 282 281 279 276 274 273 271 268 265 263 261 259 257 255 255 255
301 300 301 300 300 300 299 299 299 299 299 300 301 301 301 301 301 300 300 300 300 300 300 300 300 300 300 299 297 295 293 291 289 285 282 280 278 277 277 277 279 279 280 280 281 282 283 284 285 285 286 287 287 287 287 286 286 285 284 283 282 281 281 282 283 284 285 284 283 283 283 282 280 277 276 275 272 268 265 263 261 259 256 255 254
301 300 301 300 300 300 299 299 299 298 299 300 301 301 300 300 300 300 300 299 299 299 300 300 300 300 299 298 297 295 293 290 287 284 281 279 277 276 276 277 278 279 279 280 281 281 283 284 284 285 286 287 287 287 287 287 286 285 285 283 283 282 282 282 283 283 283 283 283 283 283 283 282 280 279 278 275 273 269 266 263 260 258 256 254
301 301 300 300 300 300 300 299 298 299 300 301 301 300 300 299 299 299 299 298 299 299 300 300 300 300 299 298 296 295 293 290 286 283 280 278 277 276 276 277 278 279 279 279 280 281 282 284 285 286 287 287 288 287 287 287 286 285 285 285 285 284 284 284 284 284 283 283 282 283 283 283 283 281 280 279 278 275 273 269 265 261 259 258 256
301 301 301 301 301 300 299 298 299 300 301 300 300 299 299 299 298 298 297 298 299 300 300 300 300 300 299 297 296 295 292 290 286 282 279 277 276 276 276 277 277 278 278 279 280 281 282 284 285 286 287 288 288 288 287 286 285 285 285 286 287 287 287 286 285 284 283 283 283 283 283 282 282 281 280 279 277 275 274 272 268 264 261 259 257
302 302 302 301 301 300 299 299 300 300 300 299 299 299 298 298 297 297 297 299 300 300 300 300 300 299 298 297 296 294 292 289 286 282 279 277 276 276 276 277 277 277 277 278 279 280 282 284 285 287 288 288 288 287 287 286 286 286 287 288 288 288 288 287 286 285 285 285 284 284 283 282 281 280 279 278 276 275 273 272 270 268 265 261 257
303 302 302 301 300 300 300 300 300 299 299 299 299 298 298 297 296 297 299 300 300 300 300 300 300 299 297 296 295 293 291 289 285 282 279 277 276 276 275 276 276 276 277 278 279 280 282 284 286 287 288 288 287 286 285 285 285 286 287 287 287 286 285 284 284 284 284 284 283 283 283 282 281 280 278 277 276 276 276 276 274 272 270 267 261
303 303 302 301 301 300 300 300 299 300 300 300 299 297 297 297 298 299 300 300 300 300 300 300 300 298 297 295 294 293 291 288 285 281 279 278 278 277 276 276 276 276 276 277 278 279 281 283 284 285 284 284 282 282 281 281 282 284 285 286 285 284 284 284 283 283 282 282 283 283 282 281 280 279 278 278 279 279 280 281 279 276 274 272 267
304 303 303 302 301 301 300 300 300 301 301 299 298 297 298 298 299 299 300 300 300 300 300 300 300 298 296 295 294 293 291 289 285 282 280 278 278 278 277 277 277 277 277 278 278 279 281 283 283 283 283 282 281 281 281 281 282 284 285 285 285 285 286 286 286 286 286 286 286 286 285 284 282 280 278 279 279 278 279 278 278 277 276 274 271
305 304 303 302 301 301 300 301 302 302 300 299 298 298 299 299 299 300 300 300 299 299 300 300 299 298 296 295 294 293 292 290 287 283 280 278 277 277 277 277 278 278 279 279 280 281 282 283 284 284 284 284 284 284 284 284 284 285 284 284 283 284 284 283 283 284 286 288 290 290 289 287 286 284 282 281 280 278 279 279 279 277 275 273 272
306 305 304 302 301 301 302 303 303 301 300 299 299 299 299 299 300 300 300 299 299 300 300 300 299 298 296 295 294 294 293 291 288 284 280 278 277 276 276 276 277 278 279 280 280 281 282 283 284 284 284 285 285 285 285 285 286 285 284 282 281 281 281 280 280 281 283 285 287 289 289 287 287 287 286 285 284 283 284 284 280 276 273 270 268
306 305 303 302 302 303 304 303 302 301 301 300 299 299 299 300 300 300 299 299 300 300 300 300 299 297 296 295 294 294 294 292 288 284 281 279 277 276 275 276 277 278 279 280 280 281 282 283 284 285 285 286 286 286 286 286 286 285 283 282 281 280 280 280 280 281 282 283 284 285 284 282 282 284 285 287 286 284 283 280 276 273 271 269 266
306 304 303 303 304 305 304 302 302 301 300 300 299 300 300 300 300 300 299 300 300 300 300 300 299 297 296 295 294 294 293 292 289 286 283 281 278 276 276 276 277 277 278 279 280 281 281 283 284 285 286 286 286 285 286 287 286 284 283 282 282 281 280 280 281 282 283 284 283 282 281 279 278 280 282 284 282 279 275 271 269 269 269 267 266
306 303 304 306 306 304 303 302 302 301 300 300 301 301 301 301 301 300 300 300 300 300 300 299 299 297 296 295 294 294 293 292 290 288 285 283 280 278 277 277 276 277 278 279 279 280 281 283 284 285 285 285 285 285 287 287 286 284 283 283 282 281 281 281 282 282 282 282 281 279 277 274 273 271 268 265 264 266 267 266 265 265 266 266 266
304 304 306 307 305 303 303 302 302 301 301 302 302 302 302 301 301 300 300 300 300 300 300 299 299 297 296 295 294 293 293 292 290 288 286 284 281 279 278 277 277 277 278 279 279 280 281 282 283 283 283 284 284 286 287 287 285 284 284 284 282 282 283 284 284 283 281 278 275 273 271 268 265 263 259 255 252 253 257 260 261 262 262 263 265
305 307 308 306 304 304 303 302 302 302 302 302 302 302 302 301 300 300 300 300 300 300 300 299 298 297 295 294 294 293 292 292 290 288 287 285 283 281 279 278 278 278 279 279 280 281 281 281 281 281 282 283 284 286 286 285 283 282 282 281 281 282 284 286 286 284 282 281 278 276 272 268 265 263 260 257 253 251 252 255 257 258 258 259 261
307 308 307 305 305 304 303 302 302 303 303 302 302 301 301 301 300 300 300 300 300 300 300 299 298 297 296 294 293 293 293 292 290 288 287 286 284 283 282 281 281 281 281 280 280 280 280 280 280 280 281 283 285 286 286 283 281 281 281 280 280 283 286 286 284 283 283 284 284 284 281 276 270 266 262 259 256 253 252 253 254 255 257 257 258
308 307 306 306 306 304 303 302 303 303 303 302 301 301 301 301 300 300 300 300 300 300 300 299 298 297 296 294 294 293 293 292 290 289 288 287 286 285 284 284 284 283 282 281 280 280 280 280 281 282 283 284 285 285 282 279 277 277 277 277 280 284 284 281 280 281 283 285 286 286 285 283 280 274 268 264 260 256 254 253 253 254 255 257 258
308 308 308 307 306 304 303 302 303 303 302 302 301 301 301 300 300 300 300 300 300 301 301 300 298 297 296 295 294 293 293 291 290 289 289 288 288 287 286 286 286 285 284 282 281 281 281 282 284 285 285 285 284 281 277 275 274 273 272 273 276 276 274 274 278 281 282 283 285 285 285 285 283 279 275 271 267 263 259 256 254 253 254 255 257
308 309 309 308 306 304 303 302 303 303 302 301 301 301 301 300 300 300 300 300 301 301 301 300 298 297 297 295 294 293 292 291 290 290 290 290 289 289 288 288 288 286 285 284 284 285 286 287 288 287 286 284 281 278 276 274 271 269 268 267 266 266 270 275 278 279 279 280 282 283 283 283 282 280 277 275 273 270 267 263 260 257 256 255 256
310 310 309 308 306 304 302 303 303 302 302 301 301 302 301 301 301 301 301 301 301 301 301 300 298 298 297 296 295 293 291 290 291 291 291 291 291 291 290 289 288 287 287 288 290 291 292 292 291 289 287 285 282 280 277 274 272 271 271 269 267 269 274 278 278 277 277 278 278 279 280 280 280 278 276 274 274 272 270 268 266 264 261 259 258
311 310 309 308 305 303 303 303 303 302 302 302 302 302 302 301 301 301 301 301 301 301 301 300 299 298 298 297 295 293 290 290 291 291 291 291 292 292 291 289 287 287 288 290 292 293 294 294 293 291 289 287 284 282 279 277 276 276 275 274 273 275 277 277 275 275 276 277 278 278 278 278 276 275 273 273 272 272 271 269 268 267 265 263 261
311 310 309 307 305 303 303 304 303 303 302 302 303 303 303 302 302 302 302 302 302 301 301 300 299 299 298 297 296 293 291 291 290 290 290 290 291 291 290 289 288 288 288 289 291 291 292 292 291 290 289 288 286 284 282 280 279 277 276 275 275 275 275 274 274 274 275 276 277 278 278 277 275 273 272 272 272 272 272 271 270 268 268 267 264
311 310 309 307 305 304 304 304 304 303 302 303 303 303 303 303 302 303 303 303 302 302 301 301 300 299 298 297 296 294 293 291 290 290 289 290 290 290 290 289 290 290 290 291 292 291 290 289 288 289 290 290 289 288 286 284 281 279 277 275 274 274 273 273 273 274 275 277 278 278 279 278 276 274 273 273 273 273 274 273 272 271 271 270 267
311 310 309 306 305 304 304 304 304 303 303 303 304 304 304 303 303 304 304 303 302 302 302 301 301 300 299 298 297 296 295 293 292 290 290 290 290 289 288 288 289 289 290 291 291 288 286 287 288 290 292 292 291 289 287 284 281 278 276 274 274 273 273 273 274 275 276 277 278 279 279 278 276 275 274 273 274 274 274 275 275 275 273 270 266
311 310 308 306 305 304 304 305 304 303 303 304 304 304 304 304 304 304 304 303 303 302 302 302 301 299 298 298 298 296 296 295 292 290 289 288 287 285 284 284 286 287 289 289 287 285 287 289 291 292 292 290 288 286 284 281 278 276 275 274 274 274 274 275 276 277 278 279 279 280 279 278 276 275 274 274 275 275 276 278 278 277 273 268 264
311 310 308 306 305 305 305 304 304 303 304 304 304 304 304 304 305 305 304 303 303 302 302 302 301 300 298 298 297 296 296 295 293 291 290 289 288 287 287 288 289 289 288 287 285 286 289 290 289 288 286 284 283 283 281 278 274 272 271 271 271 272 273 274 276 277 278 279 280 280 280 279 277 275 275 276 277 278 280 281 280 277 273 269 265
311 310 308 307 306 305 305 304 304 304 305 305 305 304 304 304 305 305 305 304 304 304 304 304 304 303 302 301 301 300 299 299 298 296 295 293 291 292 293 294 294 293 292 291 291 293 295 294 292 289 286 283 283 283 282 280 276 272 269 268 268 268 269 269 270 271 272 274 276 278 278 277 276 275 275 277 278 279 280 279 278 276 273 270 267
311 310 309 307 306 305 305 304 305 305 306 306 305 305 305 305 305 305 304 304 305 305 305 305 304 303 302 302 302 301 301 301 300 299 298 296 295 296 296 295 295 294 293 294 296 299 300 299 297 296 293 291 290 289 288 286 283 279 274 270 269 269 268 267 266 267 269 271 272 274 274 273 272 272 273 275 277 278 278 277 275 274 273 270 267
311 310 309 307 306 306 305 305 306 306 307 306 306 307 307 307 307 306 305 304 304 305 305 304 303 302 301 300 300 299 300 300 299 299 299 299 298 298 296 295 294 293 294 295 297 298 297 296 295 295 294 293 293 292 291 289 288 285 279 275 272 271 269 268 267 267 269 270 271 271 271 270 269 270 272 274 275 276 276 275 273 272 269 267 264
311 310 309 307 307 306 306 307 307 307 308 307 307 308 308 308 308 308 307 306 305 304 305 304 302 301 300 299 299 298 298 298 298 299 300 299 298 297 295 294 294 295 295 296 297 296 294 294 293 293 292 292 292 291 290 289 287 285 281 277 274 273 271 269 269 269 269 269 269 270 269 268 268 269 271 272 274 275 275 274 272 269 265 262 260
311 310 309 308 308 308 308 308 308 308 308 308 308 308 309 309 309 309 309 309 308 307 306 304 302 301 299 298 297 296 296 296 298 298 299 298 297 295 294 294 295 296 295 295 295 294 293 292 292 291 291 291 291 290 290 289 287 285 282 277 274 272 271 271 270 269 268 267 268 268 267 267 267 268 269 271 272 273 273 272 270 266 261 257 255
311 310 309 309 309 309 309 310 310 309 309 309 309 310 310 310 310 310 310 310 310 309 308 306 303 302 301 300 298 296 296 296 297 298 297 296 295 293 293 294 295 294 293 293 293 292 291 291 290 290 289 289 289 289 289 288 287 285 281 277 272 271 270 270 269 268 266 266 266 266 265 265 266 266 268 270 271 272 272 270 267 263 257 253 252
312 311 311 310 310 310 311 311 311 311 311 311 311 311 311 311 311 311 311 311 310 310 309 308 306 305 303 302 300 298 298 298 298 297 297 295 294 293 293 294 294 293 293 293 291 290 290 289 288 288 288 287 287 287 286 286 286 284 280 276 271 269 269 268 268 266 265 264 264 264 263 263 263 265 267 268 269 270 270 269 264 258 253 251 251
313 312 312 311 311 311 312 312 312 311 312 312 312 312 313 313 312 312 311 311 311 311 311 310 309 308 306 303 300 300 300 299 299 298 297 296 295 294 294 294 293 293 293 292 291 290 289 289 288 288 288 288 287 287 286 285 284 281 279 274 270 268 267 267 267 265 263 262 262 261 261 261 261 263 265 267 268 268 268 266 262 253 248 249 250
315 314 313 313 313 313 313 313 313 313 313 313 313 313 313 313 313 312 312 312 312 312 312 311 311 310 308 305 303 301 300 300 300 300 298 297 296 295 294 294 293 292 291 290 290 289 288 288 287 287 287 287 287 286 285 284 282 279 276 272 268 266 265 266 265 263 261 260 259 259 258 259 260 261 263 265 266 266 265 263 258 250 246 247 249
317 316 315 315 314 315 315 315 314 314 315 315 315 315 314 314 314 313 313 313 312 312 312 312 312 310 309 307 306 304 303 303 303 302 301 299 298 296 295 294 292 292 291 289 288 287 287 286 286 286 286 285 285 284 283 282 280 277 273 270 266 264 263 263 263 261 259 257 256 256 256 256 257 259 261 262 264 264 264 260 254 247 244 245 249
318 317 317 316 316 316 316 316 316 316 316 316 316 315 315 315 314 314 314 313 313 312 312 312 312 311 310 309 309 307 307 307 307 306 304 303 301 300 298 297 296 295 294 292 291 290 289 288 287 286 286 285 284 282 280 279 277 275 272 268 264 262 261 261 260 258 256 254 253 253 253 254 255 256 257 259 261 262 261 257 249 243 241 243 249
320 319 318 318 317 317 317 317 317 318 317 317 317 316 316 316 315 315 314 314 313 313 312 313 313 312 312 311 310 309 309 309 308 307 306 305 303 302 301 300 299 298 297 296 295 294 293 291 290 288 287 286 284 281 279 276 274 272 269 266 262 260 259 258 257 255 252 250 250 250 249 250 252 253 254 256 257 258 258 254 245 240 239 242 250
321 321 320 319 319 319 319 319 319 318 318 318 318 317 317 316 316 315 314 314 314 313 313 313 313 313 313 312 311 310 310 309 308 307 306 305 304 303 302 301 301 300 299 298 297 296 295 293 292 290 288 286 284 281 278 275 272 269 267 264 260 257 256 255 253 252 249 246 246 246 246 247 249 250 252 254 254 255 254 249 242 237 237 241 250
323 322 321 321 321 321 320 320 320 319 319 319 319 318 318 317 316 315 315 314 314 314 314 314 314 313 313 313 312 311 310 309 308 307 306 305 305 304 303 302 302 301 300 299 298 297 296 294 293 291 289 287 284 281 277 274 270 267 264 261 258 255 253 251 250 247 244 242 242 242 242 243 245 247 249 251 251 251 249 244 239 236 236 241 251
324 323 323 322 322 321 321 320 320 320 320 320 319 319 318 317 316 315 315 314 314 314 314 314 314 314 314 314 314 313 312 311 309 309 308 307 306 306 305 304 303 302 301 300 299 297 296 294 293 291 289 286 283 280 276 273 269 265 261 259 256 253 250 248 246 243 240 238 237 237 238 240 242 245 246 248 248 247 243 239 236 234 235 242 252
325 324 323 323 323 322 322 321 321 321 321 320 320 319 318 317 316 316 315 315 315 315 315 315 315 316 316 316 315 314 313 312 311 310 309 309 308 307 306 305 304 303 302 301 300 299 297 294 292 290 288 285 282 278 275 272 269 264 260 257 254 250 247 244 242 239 236 234 233 233 234 237 239 241 243 244 244 242 238 234 233 232 235 243 251
326 325 324 324 324 323 323 323 322 322 321 320 320 319 318 318 317 317 316 316 316 316 316 317 317 317 317 317 316 315 314 312 312 311 311 310 310 309 308 307 306 305 304 302 301 299 297 294 292 290 287 284 281 278 275 273 269 265 261 256 252 248 244 240 237 233 231 229 228 229 231 233 236 238 239 240 239 237 232 230 230 230 234 242 248
327 326 325 325 325 325 324 324 323 322 321 321 320 320 319 318 318 318 318 318 318 318 318 319 319 319 319 318 317 315 314 314 314 313 313 312 312 310 309 308 307 306 305 303 302 300 297 294 292 290 287 284 281 278 276 274 270 265 260 255 249 244 239 235 231 227 225 224 224 225 227 230 232 234 235 235 234 231 227 226 226 228 233 240 245
328 327 327 326 326 325 325 324 323 322 322 321 321 320 320 319 319 319 319 319 320 320 320 321 321 321 320 319 318 317 316 316 316 315 314 314 313 311 310 310 308 307 306 304 302 300 297 295 292 289 287 284 282 280 277 274 269 264 258 251 244 238 232 228 223 220 218 219 219 221 224 226 228 229 231 231 228 225 222 221 223 227 232 238 242
329 328 328 327 326 325 325 324 324 323 322 322 321 321 321 321 321 321 321 321 322 322 322 323 322 322 321 320 319 318 318 318 317 317 316 315 314 313 312 311 310 309 307 305 303 300 298 295 293 290 288 286 284 281 277 272 267 260 253 244 236 230 224 219 215 213 212 213 215 217 220 221 222 224 226 225 223 220 218 218 221 225 230 236 238
329 329 328 327 326 326 325 324 324 323 322 322 322 322 322 322 322 323 323 323 324 324 324 324 324 323 322 322 321 320 320 320 319 319 318 317 316 315 314 313 312 310 308 306 304 302 299 296 294 292 289 287 284 280 275 269 262 253 243 235 227 220 214 209 206 206 207 209 211 214 216 216 217 219 221 220 217 214 213 214 218 223 228 232 232
Height
2981 2978 2975 2972 2969 2967 2964 2961 2958 2955 2952 2949 2946 2943 2941 2938 2935 2931 2928 2926 2923 2921 2918 2916 2913 2911 2908 2906 2903 2901 2899 2897 2895 2893 2892 2891 2891 2890 2889 2888 2888 2887 2886 2885 2884 2883 2882 2881 2880 2880 2879 2878 2878 2877 2876 2875 2874 2874 2872 2872 2871 2869 2868 2866 2863 2863 2866 2868 2868 2867 2867 2869 2872 2873 2874 2877 2880 2881 2883 2883 2884 2884 2885 2887 2889
2975 2972 2969 2966 2963 2960 2957 2955 2952 2948 2945 2942 2940 2937 2934 2931 2928 2925 2922 2920 2918 2915 2913 2910 2907 2905 2902 2900 2897 2895 2893 2891 2888 2887 2886 2885 2885 2884 2884 2883 2882 2882 2881 2880 2879 2878 2877 2876 2875 2875 2874 2873 2873 2872 2871 2871 2869 2869 2868 2866 2866 2864 2862 2861 2859 2857 2859 2862 2862 2860 2859 2860 2862 2863 2865 2869 2871 2872 2874 2876 2877 2878 2878 2879 2881
2968 2965 2962 2959 2957 2954 2951 2948 2945 2942 2939 2936 2933 2930 2927 2924 2921 2918 2916 2914 2911 2909 2906 2904 2901 2899 2896 2894 2892 2889 2887 2885 2883 2881 2880 2880 2879 2879 2878 2878 2877 2877 2876 2875 2874 2873 2872 2871 2870 2870 2869 2868 2868 2867 2866 2865 2864 2863 2863 2861 2860 2859 2857 2855 2854 2853 2853 2855 2856 2853 2852 2852 2853 2853 2855 2859 2862 2864 2865 2868 2869 2870 2872 2872 2873
2962 2959 2956 2953 2950 2947 2944 2941 2938 2935 2932 2929 2926 2923 2920 2917 2914 2912 2909 2907 2904 2902 2899 2897 2894 2892 2890 2888 2885 2883 2881 2879 2877 2876 2875 2874 2874 2873 2873 2872 2872 2871 2870 2870 2869 2868 2867 2866 2866 2865 2864 2863 2862 2862 2861 2860 2859 2858 2857 2856 2855 2854 2852 2851 2849 2848 2847 2848 2849 2847 2845 2845 2846 2846 2846 2848 2852 2855 2857 2859 2860 2862 2864 2865 2866
2955 2952 2949 2946 2943 2940 2937 2934 2931 2928 2925 2922 2919 2916 2913 2911 2908 2905 2903 2900 2897 2895 2892 2890 2888 2885 2884 2881 2879 2877 2875 2873 2871 2870 2869 2869 2868 2868 2867 2866 2866 2865 2865 2864 2863 2863 2862 2861 2861 2860 2859 2858 2857 2857 2856 2855 2854 2853 2852 2851 2850 2848 2847 2846 2845 2843 2842 2842 2842 2841 2839 2838 2839 2839 2839 2839 2842 2845 2848 2851 2851 2853 2855 2856 2858
2949 2946 2943 2940 2937 2934 2931 2928 2925 2921 2919 2916 2913 2910 2907 2904 2902 2899 2896 2893 2891 2888 2886 2884 2881 2879 2877 2875 2873 2871 2869 2868 2866 2865 2864 2863 2863 2862 2861 2861 2860 2860 2859 2859 2858 2857 2856 2856 2855 2854 2854 2853 2852 2851 2851 2850 2848 2847 2846 2845 2844 2843 2842 2841 2840 2839 2837 2836 2835 2834 2833 2831 2831 2832 2832 2832 2833 2835 2838 2841 2842 2844 2845 2847 2850
2942 2939 2936 2933 2930 2928 2925 2921 2918 2915 2913 2910 2907 2904 2901 2898 2896 2893 2890 2887 2885 2883 2880 2878 2875 2873 2871 2869 2867 2865 2863 2862 2860 2859 2859 2858 2857 2856 2855 2855 2854 2854 2853 2853 2852 2852 2851 2850 2850 2849 2848 2847 2847 2846 2845 2844 2843 2842 2841 2840 2838 2837 2836 2835 2835 2833 2832 2831 2830 2828 2826 2825 2824 2825 2825 2825 2825 2827 2827 2828 2831 2835 2837 2838 2841
2935 2933 2930 2927 2924 2921 2918 2915 2912 2909 2906 2904 2901 2898 2895 2892 2890 2887 2884 2881 2879 2877 2874 2872 2870 2867 2865 2863 2861 2859 2857 2856 2855 2854 2853 2852 2851 2850 2850 2849 2849 2848 2848 2847 2847 2846 2845 2845 2844 2844 2843 2842 2841 2840 2839 2838 2837 2836 2835 2834 2832 2831 2830 2829 2828 2827 2826 2825 2824 2822 2821 2819 2818 2818 2818 2818 2818 2818 2818 2818 2819 2825 2828 2829 2831
2929 2926 2923 2921 2918 2915 2912 2908 2906 2903 2900 2898 2895 2892 2889 2887 2884 2881 2878 2876 2873 2871 2868 2866 2864 2862 2860 2857 2855 2853 2852 2851 2850 2848 2847 2846 2845 2845 2844 2843 2843 2842 2841 2841 2841 2840 2840 2839 2839 2838 2838 2837 2836 2834 2833 2832 2830 2829 2829 2828 2827 2825 2824 2823 2822 2821 2819 2818 2817 2816 2814 2813 2812 2812 2812 2811 2810 2809 2810 2810 2811 2815 2817 2818 2823
2923 2920 2917 2915 2912 2908 2905 2902 2900 2897 2895 2892 2889 2886 2883 2880 2877 2875 2872 2870 2867 2865 2863 2861 2858 2856 2854 2852 2850 2848 2846 2845 2844 2843 2841 2840 2839 2839 2838 2837 2837 2836 2835 2835 2835 2834 2834 2833 2833 2833 2832 2831 2830 2829 2828 2826 2825 2824 2823 2823 2822 2820 2818 2817 2816 2815 2813 2812 2811 2810 2807 2806 2806 2806 2805 2805 2803 2802 2803 2804 2805 2807 2807 2808 2813
2917 2914 2911 2908 2905 2902 2899 2896 2894 2891 2889 2886 2883 2880 2876 2874 2871 2868 2866 2864 2861 2859 2857 2855 2853 2850 2848 2846 2844 2843 2841 2840 2839 2837 2836 2835 2833 2832 2831 2831 2830 2830 2829 2829 2829 2829 2828 2828 2828 2828 2827 2826 2825 2824 2823 2821 2820 2819 2818 2817 2815 2814 2812 2810 2809 2808 2807 2806 2805 2804 2801 2800 2800 2800 2799 2799 2799 2798 2798 2798 2798 2799 2800 2800 2802
2911 2908 2905 2902 2899 2896 2893 2890 2887 2885 2882 2879 2876 2873 2870 2867 2865 2862 2860 2858 2855 2853 2851 2849 2847 2845 2842 2840 2839 2837 2836 2835 2833 2832 2831 2830 2828 2826 2824 2824 2823 2823 2823 2823 2823 2823 2822 2822 2822 2822 2821 2820 2819 2818 2817 2816 2815 2814 2813 2811 2809 2807 2806 2804 2802 2800 2799 2798 2797 2797 2795 2794 2794 2795 2795 2794 2794 2794 2793 2793 2793 2793 2793 2794 2794
2904 2901 2898 2895 2893 2890 2887 2884 2881 2879 2876 2873 2869 2866 2864 2861 2859 2856 2854 2852 2850 2847 2846 2843 2841 2839 2836 2834 2833 2831 2830 2829 2828 2826 2825 2824 2823 2821 2818 2817 2817 2817 2817 2817 2817 2817 2816 2815 2815 2814 2814 2813 2812 2811 2810 2810 2809 2808 2807 2805 2803 2802 2801 2799 2798 2795 2793 2791 2790 2789 2788 2787 2787 2788 2789 2789 2788 2788 2787 2787 2788 2788 2787 2788 2788
2898 2895 2892 2890 2887 2884 2881 2878 2875 2873 2869 2866 2863 2861 2858 2856 2853 2851 2848 2846 2844 2842 2840 2838 2836 2833 2830 2828 2827 2826 2825 2824 2822 2820 2819 2818 2818 2815 2813 2811 2811 2811 2811 2811 2811 2810 2810 2809 2808 2808 2807 2806 2805 2804 2803 2803 2803 2802 2800 2799 2797 2796 2795 2794 2793 2792 2790 2787 2784 2783 2783 2782 2781 2781 2783 2784 2783 2782 2782 2782 2783 2782 2781 2781 2782
2892 2889 2886 2884 2881 2878 2875 2872 2869 2866 2863 2860 2857 2855 2853 2850 2848 2845 2842 2840 2838 2836 2834 2832 2830 2828 2825 2823 2821 2820 2820 2818 2816 2814 2813 2812 2812 2809 2807 2806 2805 2805 2805 2805 2805 2804 2803 2802 2801 2801 2800 2799 2798 2798 2797 2796 2796 2794 2793 2791 2791 2790 2788 2788 2787 2786 2785 2783 2781 2780 2779 2778 2777 2777 2778 2779 2778 2778 2778 2777 2777 2776 2775 2775 2775
2886 2883 2880 2878 2875 2872 2869 2865 2863 2860 2857 2854 2852 2849 2847 2844 2842 2839 2836 2834 2832 2830 2828 2826 2824 2822 2820 2818 2816 2815 2815 2813 2811 2809 2807 2806 2805 2803 2801 2800 2799 2798 2799 2799 2798 2798 2797 2796 2795 2794 2793 2792 2791 2791 2790 2790 2788 2786 2785 2784 2783 2782 2781 2781 2781 2780 2778 2777 2776 2776 2775 2774 2774 2773 2774 2774 2774 2774 2773 2771 2771 2771 2770 2769 2769
2880 2877 2874 2872 2869 2866 2863 2859 2857 2854 2851 2848 2846 2843 2841 2838 2836 2833 2830 2828 2827 2825 2822 2820 2818 2816 2814 2813 2811 2809 2809 2808 2806 2803 2802 2800 2799 2796 2795 2794 2793 2792 2793 2792 2792 2791 2790 2790 2788 2787 2785 2785 2784 2784 2784 2783 2781 2779 2778 2777 2776 2774 2774 2774 2775 2774 2773 2771 2770 2770 2770 2770 2769 2769 2769 2770 2770 2769 2767 2766 2767 2767 2766 2765 2764
2873 2871 2869 2866 2863 2860 2857 2854 2851 2848 2845 2842 2840 2837 2835 2832 2830 2827 2825 2823 2821 2819 2817 2815 2813 2811 2809 2807 2805 2803 2803 2803 2801 2798 2796 2795 2793 2790 2789 2787 2786 2786 2786 2785 2785 2784 2784 2783 2782 2780 2778 2778 2778 2778 2778 2777 2774 2772 2770 2769 2767 2766 2766 2767 2767 2767 2766 2765 2765 2765 2764 2764 2763 2762 2762 2764 2765 2765 2763 2761 2762 2763 2761 2761 2760
2868 2866 2864 2861 2858 2854 2851 2848 2845 2842 2839 2837 2834 2832 2829 2827 2824 2822 2819 2817 2815 2814 2811 2809 2808 2806 2804 2802 2800 2798 2797 2797 2796 2793 2791 2789 2787 2785 2783 2781 2780 2780 2780 2779 2778 2778 2777 2776 2776 2774 2772 2772 2772 2772 2772 2770 2767 2765 2764 2762 2759 2759 2760 2760 2759 2757 2756 2757 2757 2758 2759 2759 2759 2757 2757 2758 2759 2760 2759 2758 2758 2757 2756 2756 2756
2863 2861 2858 2855 2852 2848 2845 2842 2839 2837 2834 2831 2829 2826 2824 2822 2819 2817 2814 2812 2810 2808 2806 2803 2802 2801 2799 2796 2795 2793 2791 2791 2790 2788 2786 2784 2782 2779 2777 2775 2775 2774 2773 2772 2771 2770 2770 2769 2769 2768 2767 2766 2766 2766 2766 2764 2761 2759 2757 2755 2753 2753 2754 2753 2750 2749 2748 2748 2748 2749 2750 2752 2753 2752 2752 2752 2753 2754 2754 2753 2752 2752 2751 2750 2751
2858 2855 2852 2849 2846 2842 2839 2836 2834 2831 2829 2826 2824 2821 2819 2817 2814 2812 2809 2806 2804 2802 2800 2798 2796 2795 2793 2791 2789 2788 2786 2784 2784 2782 2780 2779 2777 2775 2772 2770 2770 2768 2766 2765 2764 2763 2763 2763 2762 2762 2761 2760 2760 2760 2760 2758 2755 2754 2751 2749 2748 2749 2747 2744 2743 2742 2741 2741 2741 2741 2742 2743 2745 2746 2745 2745 2746 2747 2748 2747 2747 2746 2745 2744 2744
2852 2849 2847 2843 2840 2837 2834 2831 2828 2826 2823 2821 2818 2816 2814 2811 2809 2806 2804 2801 2799 2797 2795 2792 2790 2789 2788 2786 2784 2782 2780 2778 2777 2776 2775 2773 2772 2770 2767 2766 2764 2762 2759 2758 2757 2757 2757 2757 2756 2756 2755 2755 2754 2753 2752 2751 2750 2748 2746 2745 2746 2744 2740 2737 2737 2737 2736 2735 2735 2734 2734 2735 2737 2738 2738 2738 2739 2740 2740 2741 2740 2740 2739 2739 2739
2846 2844 2841 2838 2834 2831 2828 2826 2823 2821 2818 2816 2813 2811 2809 2806 2803 2801 2798 2795 2793 2791 2789 2787 2784 2782 2782 2781 2779 2777 2775 2772 2771 2770 2769 2768 2766 2765 2763 2761 2759 2756 2753 2751 2751 2750 2750 2750 2750 2749 2748 2747 2747 2746 2745 2744 2743 2741 2740 2741 2740 2737 2733 2732 2733 2732 2730 2730 2729 2728 2728 2729 2729 2730 2730 2731 2732 2732 2733 2733 2734 2733 2733 2733 2733
2841 2839 2836 2832 2829 2826 2823 2821 2818 2816 2813 2811 2808 2806 2804 2801 2798 2796 2793 2790 2787 2786 2784 2781 2778 2776 2775 2775 2774 2771 2769 2767 2765 2764 2762 2761 2760 2759 2757 2756 2754 2751 2747 2746 2745 2744 2743 2743 2742 2741 2741 2740 2739 2738 2737 2737 2735 2734 2734 2734 2732 2729 2728 2728 2728 2726 2725 2724 2723 2722 2722 2723 2723 2723 2723 2723 2724 2724 2725 2726 2726 2726 2726 2726 2726
2836 2833 2830 2827 2824 2821 2818 2816 2813 2810 2808 2805 2803 2801 2798 2796 2793 2791 2788 2785 2782 2780 2778 2775 2773 2770 2769 2768 2768 2766 2763 2761 2760 2759 2757 2755 2754 2753 2752 2750 2749 2746 2744 2741 2740 2738 2737 2736 2735 2734 2733 2732 2731 2729 2729 2729 2728 2728 2727 2726 2724 2723 2722 2722 2721 2720 2719 2718 2717 2716 2716 2717 2717 2716 2716 2716 2716 2716 2717 2717 2718 2718 2719 2718 2718
2831 2828 2825 2822 2819 2815 2813 2811 2808 2805 2803 2800 2798 2796 2793 2790 2788 2785 2782 2779 2776 2774 2772 2770 2767 2765 2763 2762 2761 2760 2758 2756 2755 2753 2751 2749 2748 2747 2745 2744 2743 2741 2739 2738 2736 2734 2732 2731 2729 2727 2726 2725 2723 2722 2721 2721 2721 2720 2719 2718 2717 2716 2716 2715 2714 2713 2712 2711 2711 2710 2710 2710 2710 2709 2709 2709 2709 2709 2710 2710 2710 2710 2711 2711 2710
2826 2823 2820 2817 2814 2810 2808 2806 2803 2800 2798 2795 2793 2791 2788 2785 2783 2780 2777 2774 2771 2768 2766 2764 2761 2759 2757 2755 2754 2753 2752 2751 2749 2748 2746 2744 2743 2741 2739 2737 2736 2734 2733 2732 2730 2728 2726 2725 2723 2722 2720 2719 2717 2715 2714 2714 2713 2713 2712 2711 2710 2709 2709 2708 2707 2706 2705 2705 2704 2703 2703 2703 2703 2702 2702 2702 2702 2703 2703 2702 2702 2703 2704 2703 2701
2821 2818 2815 2812 2809 2806 2803 2800 2798 2796 2793 2790 2788 2786 2783 2780 2777 2775 2772 2768 2765 2763 2760 2758 2756 2753 2750 2749 2747 2746 2746 2745 2744 2742 2740 2739 2737 2735 2733 2731 2730 2728 2727 2726 2724 2722 2720 2719 2718 2717 2715 2713 2712 2710 2708 2707 2706 2705 2705 2704 2703 2702 2701 2701 2700 2699 2699 2699 2698 2697 2697 2696 2696 2696 2696 2695 2696 2697 2697 2696 2695 2696 2696 2695 2694
2816 2813 2810 2806 2804 2801 2798 2795 2793 2790 2788 2786 2783 2781 2778 2775 2772 2770 2768 2764 2760 2757 2755 2753 2751 2747 2744 2743 2741 2739 2738 2739 2738 2736 2735 2733 2731 2729 2727 2726 2725 2723 2722 2720 2717 2715 2714 2714 2713 2711 2710 2708 2706 2705 2703 2702 2700 2698 2697 2697 2696 2695 2694 2693 2693 2692 2692 2691 2690 2690 2690 2690 2689 2689 2689 2689 2690 2691 2690 2690 2689 2689 2689 2688 2687
2811 2808 2804 2801 2798 2796 2793 2790 2788 2785 2783 2781 2778 2776 2774 2771 2767 2764 2762 2759 2756 2752 2749 2747 2745 2742 2738 2737 2735 2733 2731 2732 2731 2730 2729 2727 2724 2721 2720 2719 2718 2716 2715 2713 2710 2709 2709 2709 2708 2706 2705 2702 2701 2699 2698 2696 2694 2693 2692 2690 2689 2688 2687 2687 2686 2685 2684 2683 2683 2683 2683 2683 2683 2683 2682 2682 2683 2684 2684 2684 2683 2683 2682 2681 2681
2805 2803 2800 2796 2793 2791 2788 2785 2783 2780 2778 2775 2772 2770 2768 2767 2764 2759 2756 2753 2751 2748 2744 2741 2739 2735 2731 2729 2727 2725 2724 2724 2723 2722 2721 2719 2716 2714 2713 2711 2709 2707 2705 2703 2701 2700 2700 2699 2699 2698 2697 2695 2694 2693 2691 2689 2688 2687 2686 2684 2683 2682 2682 2682 2681 2680 2678 2678 2677 2677 2676 2676 2676 2676 2676 2676 2677 2678 2678 2678 2677 2677 2676 2676 2675
2800 2798 2795 2791 2789 2786 2783 2780 2778 2775 2773 2770 2767 2764 2762 2760 2759 2757 2753 2749 2746 2743 2740 2737 2734 2731 2727 2724 2720 2718 2716 2716 2715 2714 2713 2712 2709 2707 2705 2704 2702 2700 2697 2695 2693 2691 2690 2688 2687 2686 2686 2685 2684 2684 2683 2681 2680 2679 2678 2677 2676 2676 2676 2675 2674 2673 2672 2672 2672 2671 2671 2671 2671 2671 2671 2671 2672 2672 2673 2673 2672 2671 2671 2670 2670
2795 2792 2789 2786 2783 2781 2778 2775 2773 2770 2767 2765 2762 2759 2756 2753 2752 2751 2749 2746 2742 2739 2736 2733 2730 2727 2724 2720 2717 2713 2711 2709 2708 2707 2706 2705 2703 2700 2697 2696 2695 2693 2690 2688 2687 2686 2683 2681 2679 2678 2677 2676 2676 2675 2674 2673 2672 2671 2670 2669 2669 2669 2669 2668 2667 2666 2666 2666 2666 2665 2665 2665 2665 2665 2666 2666 2666 2666 2667 2667 2667 2666 2665 2665 2665
2790 2787 2784 2781 2778 2776 2773 2770 2768 2765 2762 2759 2756 2754 2751 2747 2745 2743 2742 2740 2738 2736 2733 2729 2725 2722 2719 2717 2713 2709 2706 2704 2703 2701 2700 2698 2696 2694 2690 2688 2688 2686 2683 2681 2680 2678 2676 2674 2673 2671 2670 2669 2668 2667 2667 2666 2665 2664 2663 2662 2661 2661 2661 2661 2660 2660 2660 2660 2660 2660 2660 2659 2659 2660 2660 2661 2661 2661 2661 2662 2662 2661 2661 2660 2661
2785 2782 2779 2776 2773 2771 2768 2765 2762 2760 2757 2754 2751 2748 2745 2742 2739 2737 2734 2732 2731 2730 2728 2725 2721 2717 2715 2712 2709 2706 2702 2700 2698 2697 2695 2693 2691 2687 2683 2681 2681 2679 2677 2675 2673 2671 2669 2667 2665 2664 2663 2662 2660 2659 2659 2658 2658 2657 2655 2655 2654 2654 2654 2654 2654 2654 2654 2654 2654 2654 2654 2654 2654 2655 2655 2655 2656 2656 2656 2657 2656 2656 2656 2657 2657
2780 2777 2774 2771 2768 2766 2763 2760 2757 2754 2752 2749 2746 2743 2740 2737 2734 2731 2729 2726 2724 2722 2721 2720 2717 2713 2710 2706 2703 2701 2699 2696 2694 2693 2691 2688 2685 2682 2678 2676 2675 2673 2670 2669 2667 2664 2662 2660 2658 2657 2656 2655 2653 2652 2651 2650 2650 2649 2648 2647 2647 2647 2647 2647 2647 2647 2647 2648 2648 2648 2648 2649 2649 2649 2650 2650 2651 2651 2651 2652 2652 2652 2652 2653 2654
2775 2772 2769 2767 2764 2761 2758 2756 2753 2749 2747 2744 2741 2738 2735 2732 2729 2726 2723 2721 2718 2716 2714 2713 2711 2708 2706 2702 2697 2694 2693 2691 2690 2688 2686 2683 2680 2676 2673 2670 2668 2666 2664 2662 2660 2657 2655 2653 2651 2650 2648 2647 2646 2645 2644 2643 2642 2641 2641 2640 2640 2640 2640 2641 2641 2641 2641 2642 2642 2643 2643 2643 2644 2644 2645 2645 2646 2646 2647 2647 2647 2648 2649 2649 2650
2771 2768 2765 2762 2759 2756 2754 2751 2748 2745 2742 2739 2736 2733 2730 2727 2724 2721 2718 2716 2713 2710 2708 2706 2704 2702 2700 2698 2694 2690 2687 2685 2684 2682 2679 2677 2673 2670 2667 2664 2661 2659 2656 2655 2652 2650 2648 2646 2644 2642 2641 2640 2639 2637 2636 2636 2635 2634 2633 2633 2633 2633 2634 2634 2635 2635 2635 2636 2637 2637 2637 2638 2639 2639 2640 2640 2641 2642 2642 2643 2643 2644 2645 2646 2647
2766 2763 2760 2757 2755 2752 2749 2746 2744 2740 2737 2734 2731 2728 2725 2722 2719 2716 2713 2711 2708 2705 2703 2701 2699 2696 2694 2691 2689 2685 2682 2680 2678 2676 2673 2670 2667 2664 2661 2658 2655 2652 2650 2647 2645 2643 2641 2639 2637 2635 2633 2632 2631 2630 2628 2627 2627 2627 2626 2626 2626 2627 2627 2628 2629 2629 2630 2630 2631 2632 2632 2633 2634 2635 2635 2636 2637 2637 2638 2639 2640 2641 2642 2643 2644
2762 2759 2756 2753 2750 2747 2744 2742 2739 2736 2733 2730 2726 2723 2720 2717 2714 2711 2708 2706 2703 2701 2698 2695 2694 2691 2688 2685 2682 2678 2675 2673 2671 2669 2666 2663 2661 2657 2654 2651 2648 2645 2643 2641 2638 2636 2634 2632 2630 2628 2626 2625 2624 2623 2621 2620 2619 2619 2619 2619 2619 2620 2621 2622 2622 2623 2624 2625 2626 2626 2627 2628 2629 2630 2631 2632 2632 2633 2634 2635 2636 2637 2639 2640 2641
2758 2755 2752 2749 2746 2743 2740 2737 2734 2731 2728 2725 2722 2719 2716 2713 2709 2706 2704 2701 2698 2695 2693 2691 2688 2685 2682 2679 2675 2671 2667 2665 2663 2660 2657 2654 2652 2649 2646 2643 2640 2637 2635 2633 2631 2628 2626 2624 2623 2621 2619 2617 2616 2615 2614 2612 2612 2612 2612 2612 2613 2614 2615 2616 2616 2617 2618 2619 2620 2621 2623 2624 2625 2626 2627 2627 2628 2629 2630 2631 2633 2634 2635 2637 2638
2754 2751 2748 2745 2742 2739 2736 2733 2730 2727 2724 2721 2717 2714 2711 2708 2705 2702 2699 2696 2693 2690 2688 2685 2683 2680 2676 2673 2669 2665 2661 2658 2655 2652 2649 2646 2643 2640 2637 2634 2631 2629 2626 2624 2621 2619 2617 2616 2614 2613 2611 2610 2608 2607 2606 2605 2605 2605 2605 2606 2607 2608 2609 2610 2611 2612 2613 2614 2615 2617 2618 2619 2620 2622 2623 2624 2625 2626 2627 2628 2629 2631 2632 2634 2635
2750 2747 2744 2741 2738 2735 2732 2729 2726 2723 2720 2717 2714 2710 2707 2704 2701 2697 2694 2692 2688 2685 2682 2679 2676 2673 2670 2667 2663 2659 2655 2652 2648 2645 2642 2639 2635 2632 2629 2626 2623 2621 2618 2615 2613 2611 2609 2607 2605 2604 2603 2601 2600 2599 2599 2598 2598 2598 2598 2599 2600 2602 2603 2604 2605 2606 2607 2609 2610 2612 2613 2615 2616 2618 2619 2620 2621 2622 2623 2625 2626 2628 2629 2631 2632
2746 2743 2740 2737 2734 2731 2728 2725 2722 2719 2716 2713 2709 2706 2703 2700 2696 2693 2690 2686 2683 2680 2677 2673 2670 2667 2664 2661 2657 2653 2649 2646 2642 2638 2635 2632 2628 2625 2622 2619 2616 2613 2610 2608 2605 2603 2601 2599 2597 2596 2594 2593 2592 2591 2591 2591 2591 2591 2592 2593 2594 2596 2597 2599 2600 2601 2602 2604 2606 2607 2609 2611 2612 2614 2615 2616 2618 2619 2620 2621 2623 2625 2626 2628 2629
2742 2739 2736 2734 2731 2728 2724 2721 2718 2715 2712 2709 2706 2703 2699 2695 2692 2689 2685 2682 2678 2675 2671 2668 2664 2660 2657 2654 2650 2646 2642 2639 2635 2631 2628 2624 2621 2618 2615 2612 2608 2605 2603 2600 2598 2595 2593 2591 2589 2588 2587 2586 2585 2584 2584 2584 2584 2585 2585 2586 2588 2590 2591 2593 2594 2595 2597 2599 2601 2603 2605 2607 2608 2610 2612 2613 2614 2616 2617 2619 2620 2622 2624 2625 2626
2738 2736 2733 2730 2727 2724 2721 2718 2714 2711 2708 2705 2702 2699 2695 2692 2688 2684 2681 2677 2673 2670 2666 2662 2659 2655 2651 2647 2643 2639 2635 2632 2628 2624 2621 2617 2614 2611 2607 2604 2601 2598 2595 2592 2590 2588 2586 2584 2582 2580 2579 2578 2578 2577 2577 2577 2578 2578 2579 2580 2582 2584 2586 2587 2589 2590 2592 2595 2597 2599 2601 2603 2605 2607 2608 2610 2611 2613 2614 2616 2617 2619 2621 2622 2623
2735 2732 2729 2726 2723 2720 2717 2714 2711 2707 2704 2701 2698 2694 2691 2687 2684 2680 2676 2672 2669 2665 2661 2657 2653 2649 2645 2641 2637 2633 2629 2625 2621 2618 2614 2610 2607 2603 2600 2596 2593 2590 2587 2585 2583 2581 2579 2577 2575 2574 2573 2572 2571 2571 2571 2571 2571 2572 2573 2575 2576 2578 2580 2582 2584 2586 2588 2591 2593 2595 2597 2600 2602 2603 2605 2607 2608 2610 2611 2613 2615 2617 2618 2620 2621
2732 2729 2725 2722 2719 2716 2713 2710 2707 2704 2700 2697 2694 2690 2687 2683 2679 2676 2672 2668 2664 2659 2655 2652 2648 2644 2640 2636 2631 2627 2623 2619 2615 2611 2607 2604 2600 2596 2593 2589 2586 2583 2580 2578 2576 2574 2572 2570 2569 2567 2566 2566 2565 2565 2565 2565 2566 2567 2568 2569 2571 2573 2575 2577 2579 2582 2584 2587 2590 2592 2594 2596 2599 2600 2602 2604 2605 2607 2609 2611 2612 2614 2616 2618 2619
2728 2725 2722 2719 2715 2712 2709 2706 2703 2700 2696 2693 2689 2686 2682 2679 2675 2671 2667 2663 2659 2654 2650 2646 2642 2638 2634 2630 2625 2621 2617 2613 2609 2605 2601 2597 2593 2589 2586 2583 2580 2577 2574 2572 2570 2568 2566 2564 2563 2562 2561 2560 2560 2560 2560 2560 2561 2562 2563 2564 2566 2568 2570 2573 2575 2578 2581 2584 2586 2589 2591 2593 2596 2598 2599 2601 2603 2604 2607 2609 2610 2612 2614 2615 2617
2725 2721 2718 2715 2712 2709 2705 2702 2699 2695 2692 2688 2685 2681 2678 2674 2670 2666 2662 2658 2654 2650 2645 2641 2637 2633 2628 2624 2620 2615 2611 2607 2603 2599 2595 2591 2587 2583 2579 2576 2573 2571 2568 2566 2564 2562 2561 2559 2558 2557 2556 2556 2556 2556 2556 2556 2557 2558 2559 2560 2562 2564 2566 2569 2572 2575 2578 2581 2584 2586 2588 2591 2593 2595 2597 2598 2600 2602 2605 2607 2609 2610 2612 2614 2615
2722 2718 2715 2712 2708 2705 2702 2698 2695 2691 2688 2684 2680 2677 2673 2669 2665 2661 2657 2653 2648 2644 2640 2636 2632 2627 2623 2619 2614 2610 2606 2601 2597 2593 2589 2585 2581 2577 2574 2570 2568 2565 2563 2561 2559 2557 2556 2554 2553 2552 2552 2552 2552 2552 2552 2552 2553 2554 2555 2557 2558 2561 2564 2567 2570 2573 2576 2578 2581 2584 2586 2589 2591 2593 2594 2596 2598 2601 2603 2605 2607 2609 2610 2612 2613